Content
SEND FEEDBACK

Daily
Averages
Monthly
Summary
United States of America

LIVONIA, MICHIGAN


Home > North America > United States > Michigan
Elevation: 778 feet     Latitude: 42 13N     Longitude: 083 31W

WEATHER
 
SELECT A DAY
Number of Records: 205,084;   Date Range: 1/1/95 - 9/29/14
 
SHARE

PRINT THIS DATA

[ ← Previous Day ]
WEATHER ALMANAC - JANUARY 20, 2014
[ Next Day → ]
[ °C ]   °F
Weather ElementAverageHighLow
Temperature26 °F33.8 °F (6:01 am)15.1 °F (11:53 pm)
Dewpoint17.4 °F27 °F (6:53 am)6.8 °F (11:15 pm)
Humidity70.1 %80 % (4:49 am)53 % (2:53 pm)
Barometer29.81 in30.07 in (11:53 pm)29.51 in (1:40 am)
Wind Speed10.6 mph19.6 mph (7:32 am)
Wind Gust20.7 mph (9:14 pm)
Weather ElementAverage
Visibility6.9 mi
Wind DirectionSW (221.4 °)

Weather ElementTotal
Precipitation---
Heating Degree Days40.6 (Base 65)
Averaged from 44 records on January 20, 2014
WEATHER CONDITIONS BREAKOUT
WIND DIRECTION BREAKOUT
WEATHER BY HOUR - JANUARY 20, 2014
[ °C ]   °F
Local TimeTemperatureDewpointHumidityBarometerVisibilityWind DirectionWind SpeedGust SpeedPrecipitationEventsConditions
1:40 AM30.2 °F21.2 °F69 %29.51 in10.0 miSW (220°)10.4 mphOvercast
1:53 AM30.9 °F21.9 °F69 %29.52 in10.0 miSW (220°)10.4 mphOvercast
2:53 AM32.0 °F23.0 °F69 %29.54 in10.0 miSW (230°)9.2 mphOvercast
3:53 AM32.0 °F25.0 °F75 %29.56 in6.0 miSW (230°)8.1 mphHaze
4:28 AM32.0 °F24.8 °F75 %29.58 in6.0 miWest (260°)6.9 mphHaze
4:49 AM32.0 °F26.6 °F80 %29.58 in7.0 miWest (260°)5.8 mphOvercast
4:53 AM32.0 °F26.1 °F79 %29.60 in7.0 miWest (260°)6.9 mphOvercast
5:18 AM32.0 °F26.6 °F80 %29.59 in7.0 miWest (270°)6.9 mphOvercast
5:53 AM33.1 °F26.1 °F75 %29.63 in6.0 miWest (280°)6.9 mphHaze
6:01 AM33.8 °F26.6 °F75 %29.62 in6.0 miWest (280°)6.9 mphHaze
6:49 AM33.8 °F26.6 °F75 %29.65 in4.0 miNW (320°)8.1 mphHaze
6:53 AM33.1 °F27.0 °F78 %29.67 in4.0 miNW (320°)9.2 mphHaze
7:03 AM33.8 °F26.6 °F75 %29.66 in6.0 miNNW (330°)9.2 mphHaze
7:32 AM30.2 °F24.8 °F80 %29.68 in7.0 miNNW (340°)19.6 mph0.00 inRainLight Freezing Rain
7:53 AM28.9 °F23.0 °F78 %29.72 in10.0 miNNW (340°)15.0 mph0.00 inRainLight Freezing Rain
8:01 AM28.4 °F21.2 °F74 %29.70 in10.0 miNorth (350°)17.3 mph0.00 inRainLight Freezing Rain
8:13 AM26.6 °F21.2 °F80 %29.72 in10.0 miNNW (330°)16.1 mph0.00 inOvercast
8:51 AM26.6 °F17.6 °F69 %29.75 in10.0 miNNW (340°)11.5 mph0.00 inOvercast
8:53 AM26.1 °F18.0 °F71 %29.77 in10.0 miNNW (340°)8.1 mph0.00 inOvercast
9:05 AM26.6 °F17.6 °F69 %29.76 in10.0 miNNW (340°)10.4 mphOvercast
9:24 AM26.6 °F17.6 °F69 %29.77 in10.0 miNNW (330°)10.4 mphOvercast
9:53 AM26.1 °F16.0 °F66 %29.82 in10.0 miNW (320°)13.8 mphOvercast
10:04 AM24.8 °F15.8 °F69 %29.81 in10.0 miNW (320°)13.8 mphOvercast
10:53 AM26.1 °F15.1 °F63 %29.86 in10.0 miNW (320°)11.5 mphOvercast
11:53 AM27.0 °F14.0 °F58 %29.86 in10.0 miNorth (350°)11.5 mphOvercast
12:53 PM28.0 °F14.0 °F56 %29.85 in10.0 miNorth (360°)5.8 mphOvercast
1:53 PM28.0 °F14.0 °F56 %29.86 in10.0 miWNW (290°)11.5 mphOvercast
2:53 PM28.0 °F12.9 °F53 %29.88 in10.0 miNNW (330°)8.1 mphOvercast
3:53 PM28.0 °F14.0 °F56 %29.90 in10.0 miNNW (330°)6.9 mphOvercast
4:53 PM27.0 °F14.0 °F58 %29.92 in9.0 miNorth (350°)9.2 mph0.00 inOvercast
5:53 PM25.0 °F14.0 °F63 %29.94 in10.0 miNNE (20°)9.2 mph0.00 inOvercast
6:53 PM24.1 °F15.1 °F69 %29.96 in8.0 miNE (40°)8.1 mph0.00 inSnowLight Snow
7:34 PM21.2 °F12.2 °F68 %29.98 in4.0 miNE (50°)13.8 mph0.00 inSnowLight Snow
7:53 PM19.9 °F12.9 °F74 %30.01 in2.0 miNE (50°)13.8 mph0.00 inSnowLight Snow
8:04 PM19.4 °F12.2 °F74 %29.99 in1.5 miENE (60°)13.8 mph0.00 inSnowLight Snow
8:30 PM17.6 °F10.4 °F73 %30.00 in2.5 miNE (50°)13.8 mph0.00 inSnowLight Snow
8:53 PM18.0 °F10.0 °F71 %30.04 in2.0 miNE (50°)12.7 mph0.00 inSnowLight Snow
9:01 PM17.6 °F10.4 °F73 %30.01 in1.8 miNE (50°)11.5 mph0.00 inSnowLight Snow
9:14 PM17.6 °F8.6 °F68 %30.01 in2.5 miNE (40°)12.7 mph20.7 mph0.00 inSnowLight Snow
9:53 PM17.1 °F9.0 °F71 %30.05 in1.8 miNNE (30°)9.2 mph0.00 inSnowLight Snow
10:53 PM16.0 °F8.1 °F71 %30.05 in1.8 miNE (40°)10.4 mph0.00 inSnowLight Snow
11:05 PM15.8 °F8.6 °F73 %30.03 in3.0 miNE (40°)10.4 mph0.00 inSnowLight Snow
11:15 PM15.8 °F6.8 °F68 %30.03 in4.0 miNE (40°)15.0 mph0.00 inSnowLight Snow
11:53 PM15.1 °F7.0 °F70 %30.07 in3.0 miNNE (20°)8.1 mph0.00 inSnowLight Snow
Hourly data recorded from KYIP, located miles away from Livonia, Michigan







STORIES FROM OUR PARTNERS